AL7BX-WX Weather Reports


time (UTC)temp
F
wind
direction
speed
knots
gust
knots
rain 1hr
in
rain 24hr
in
rain mn
in
humidity
%
barometer
mb
20260508105403 46 0 0.0 0.0 0.00 0.00 0.00 48
20260508104503 47 0 0.0 0.0 0.00 0.00 0.00 46
20260508103603 49 260 0.0 1.7 0.00 0.00 0.00 45
20260508102703 51 261 1.7 3.5 0.00 0.00 0.00 42
20260508101803 54 198 0.9 4.3 0.00 0.00 0.00 41
20260508101114 56 159 0.9 2.6 0.00 0.00 0.00 34
20260508100003 56 140 1.7 3.5 0.00 0.00 0.00 33
20260508095403 56 123 1.7 4.3 0.00 0.00 0.00 33
20260508094503 56 137 2.6 4.3 0.00 0.00 0.00 33
20260508093814 56 132 1.7 4.3 0.00 0.00 0.00 33
20260508092703 55 132 1.7 3.5 0.00 0.00 0.00 34
20260508091803 56 132 1.7 3.5 0.00 0.00 0.00 34
20260508090903 56 130 1.7 3.5 0.00 0.00 0.00 34
20260508090003 55 127 1.7 3.5 0.00 0.00 0.00 35
20260508085404 56 126 1.7 3.5 0.00 0.00 0.00 34
20260508084714 56 124 1.7 3.5 0.00 0.00 0.00 34
20260508083603 56 123 1.7 2.6 0.00 0.00 0.00 35
20260508082913 56 123 1.7 3.5 0.00 0.00 0.00 34
20260508081803 56 171 1.7 4.3 0.00 0.00 0.00 33
20260508080903 56 180 1.7 2.6 0.00 0.00 0.00 34
20260508080003 56 182 1.7 3.5 0.00 0.00 0.00 34
20260508075403 54 182 1.7 3.5 0.00 0.00 0.00 35
20260508074713 54 182 0.9 2.6 0.00 0.00 0.00 36
20260508073603 54 182 0.9 2.6 0.00 0.00 0.00 38
20260508072703 54 182 0.9 2.6 0.00 0.00 0.00 37
20260508071803 55 182 0.9 2.6 0.00 0.00 0.00 37
20260508070903 57 182 0.9 3.5 0.00 0.00 0.00 35
20260508070004 57 182 0.9 2.6 0.00 0.00 0.00 33
20260508065403 56 182 0.9 2.6 0.00 0.00 0.00 34
20260508064503 56 183 1.7 3.5 0.00 0.00 0.00 34
20260508063603 55 202 0.9 3.5 0.00 0.00 0.00 35
20260508062703 57 203 0.9 3.5 0.00 0.00 0.00 33
20260508061803 57 205 0.9 3.5 0.00 0.00 0.00 33
20260508060903 57 212 1.7 5.2 0.00 0.00 0.00 32
20260508060006 57 146 0.9 3.5 0.00 0.00 0.00 32
20260508055403 57 146 0.9 3.5 0.00 0.00 0.00 33
20260508054503 58 146 0.9 3.5 0.00 0.00 0.00 32
20260508053603 58 146 1.7 3.5 0.00 0.00 0.00 33
20260508052703 59 146 0.9 3.5 0.00 0.00 0.00 30
20260508051803 59 146 1.7 3.5 0.00 0.00 0.00 31
20260508050903 59 146 1.7 2.6 0.00 0.00 0.00 31
20260508050003 61 146 0.9 2.6 0.00 0.00 0.00 29
20260508045403 62 146 1.7 3.5 0.00 0.00 0.00 28
20260508044503 64 146 1.7 3.5 0.00 0.00 0.00 26
20260508043603 64 146 2.6 6.1 0.00 0.00 0.00 25
20260508042703 64 135 0.9 3.5 0.00 0.00 0.00 26
20260508041803 64 134 0.9 3.5 0.00 0.00 0.00 26
20260508040903 65 156 1.7 5.2 0.00 0.00 0.00 26
20260508040213 65 195 1.7 4.3 0.00 0.00 0.00 26
20260508035612 65 195 2.6 5.2 0.00 0.00 0.00 26
20260508034503 65 184 1.7 5.2 0.00 0.00 0.00 26
20260508033603 65 192 2.6 5.2 0.00 0.00 0.00 26
20260508032912 66 180 2.6 8.7 0.00 0.00 0.00 25
20260508032014 66 176 2.6 6.1 0.00 0.00 0.00 26
20260508031113 66 230 1.7 6.1 0.00 0.00 0.00 25
20260508030004 68 203 2.6 7.8 0.00 0.00 0.00 25
20260508025403 68 196 4.3 9.6 0.00 0.00 0.00 24
20260508024503 69 185 5.2 10.4 0.00 0.00 0.00 23
20260508023603 70 179 3.5 8.7 0.00 0.00 0.00 22
20260508022703 70 164 2.6 13.0 0.00 0.00 0.00 22
20260508021803 70 182 2.6 7.0 0.00 0.00 0.00 23
20260508021113 71 172 2.6 7.8 0.00 0.00 0.00 22
20260508020004 71 164 3.5 7.8 0.00 0.00 0.00 22
20260508015403 71 165 3.5 7.8 0.00 0.00 0.00 22
20260508014713 71 163 2.6 7.8 0.00 0.00 0.00 22
20260508013603 70 175 2.6 6.1 0.00 0.00 0.00 23
20260508012914 70 178 2.6 6.1 0.00 0.00 0.00 23
20260508011803 71 194 3.5 7.8 0.00 0.00 0.00 23
20260508010903 71 193 2.6 6.1 0.00 0.00 0.00 22
20260508010003 72 198 2.6 6.1 0.00 0.00 0.00 22
20260508005613 73 199 2.6 4.3 0.00 0.00 0.00 23
20260508004503 74 192 2.6 6.1 0.00 0.00 0.00 21
20260508003814 75 177 3.5 8.7 0.00 0.00 0.00 21
20260508002703 76 181 2.6 7.8 0.00 0.00 0.00 20
20260508001803 75 215 3.5 12.2 0.00 0.00 0.00 21
20260508000903 75 188 2.6 12.2 0.00 0.00 0.00 21
20260508000003 76 220 1.7 8.7 0.00 0.00 0.00 20
20260507235403 76 248 2.6 5.2 0.00 0.00 0.00 20
20260507234503 78 249 5.2 12.2 0.00 0.00 0.00 18
20260507233603 78 256 7.0 12.2 0.00 0.00 0.00 20
20260507232913 79 274 5.2 11.3 0.00 0.00 0.00 19
20260507231803 79 274 6.1 13.0 0.00 0.00 0.00 21
20260507230903 78 290 6.1 13.0 0.00 0.00 0.00 21
20260507230004 77 348 2.6 10.4 0.00 0.00 0.00 19
20260507225613 77 24 1.7 10.4 0.00 0.00 0.00 21
20260507224504 76 5 7.0 13.9 0.00 0.00 0.00 20
20260507223603 76 359 6.1 13.9 0.00 0.00 0.00 21
20260507222703 77 316 7.8 13.0 0.00 0.00 0.00 22
20260507221803 77 339 3.5 10.4 0.00 0.00 0.00 24
20260507220903 76 341 4.3 10.4 0.00 0.00 0.00 21
20260507220003 77 315 3.5 9.6 0.00 0.00 0.00 22
20260507215403 77 306 3.5 9.6 0.00 0.00 0.00 20
20260507214503 77 314 4.3 7.8 0.00 0.00 0.00 20
20260507213603 77 293 4.3 10.4 0.00 0.00 0.00 23
20260507212703 77 187 2.6 5.2 0.00 0.00 0.00 21
20260507211803 76 257 2.6 7.0 0.00 0.00 0.00 21
20260507210903 76 293 2.6 7.8 0.00 0.00 0.00 24
20260507210003 76 298 1.7 5.2 0.00 0.00 0.00 20
20260507205403 76 298 4.3 8.7 0.00 0.00 0.00 25
20260507204503 76 321 3.5 8.7 0.00 0.00 0.00 22
20260507203813 76 309 1.7 6.1 0.00 0.00 0.00 23
20260507202703 75 254 1.7 7.8 0.00 0.00 0.00 23
20260507201803 75 255 2.6 7.8 0.00 0.00 0.00 20
20260507201113 75 268 2.6 6.1 0.00 0.00 0.00 23
20260507200003 74 1 1.7 6.1 0.00 0.00 0.00 21
20260507195403 74 329 2.6 6.1 0.00 0.00 0.00 22
20260507194713 74 325 2.6 9.6 0.00 0.00 0.00 25
20260507193603 74 331 1.7 5.2 0.00 0.00 0.00 24
20260507192703 74 268 2.6 11.3 0.00 0.00 0.00 24
20260507191803 73 217 2.6 8.7 0.00 0.00 0.00 23
20260507190903 74 262 1.7 5.2 0.00 0.00 0.00 23
20260507190004 73 281 1.7 6.1 0.00 0.00 0.00 23
20260507185613 73 269 0.9 5.2 0.00 0.00 0.00 27
20260507184503 72 265 1.7 4.3 0.00 0.00 0.00 24
20260507183603 72 257 2.6 6.1 0.00 0.00 0.00 27
20260507182703 71 289 1.7 3.5 0.00 0.00 0.00 27
20260507181803 71 295 2.6 8.7 0.00 0.00 0.00 28
20260507180903 71 276 2.6 8.7 0.00 0.00 0.00 30
20260507180003 70 282 3.5 7.8 0.00 0.00 0.00 26
20260507175403 70 298 3.5 5.2 0.00 0.00 0.00 27
20260507174503 70 279 2.6 7.0 0.00 0.00 0.00 30
20260507173603 70 265 1.7 7.0 0.00 0.00 0.00 30
20260507172703 69 243 2.6 6.1 0.00 0.00 0.00 27
20260507171803 68 255 1.7 5.2 0.00 0.00 0.00 31
20260507170903 67 267 1.7 5.2 0.00 0.00 0.00 27
20260507170003 66 289 1.7 4.3 0.00 0.00 0.00 30
20260507165403 66 293 1.7 4.3 0.00 0.00 0.00 32
20260507164503 65 182 1.7 3.5 0.00 0.00 0.00 32
20260507163603 64 124 1.7 4.3 0.00 0.00 0.00 30
20260507162703 64 29 1.7 3.5 0.00 0.00 0.00 30
20260507161803 62 360 0.9 2.6 0.00 0.00 0.00 34
20260507160903 61 360 1.7 3.5 0.00 0.00 0.00 34
20260507160003 60 360 1.7 3.5 0.00 0.00 0.00 37
20260507155403 59 360 1.7 3.5 0.00 0.00 0.00 37
20260507154504 58 360 1.7 4.3 0.00 0.00 0.00 36
20260507153603 57 360 1.7 4.3 0.00 0.00 0.00 38
20260507152703 56 360 3.5 5.2 0.00 0.00 0.00 38
20260507151803 56 360 3.5 7.8 0.00 0.00 0.00 39
20260507150903 56 357 1.7 6.1 0.00 0.00 0.00 41
20260507150214 55 348 0.9 2.6 0.00 0.00 0.00 39
20260507145403 53 348 0.9 2.6 0.00 0.00 0.00 41
20260507144503 52 348 0.9 3.5 0.00 0.00 0.00 44
20260507143603 49 348 0.9 3.5 0.00 0.00 0.00 46
20260507142703 48 348 1.7 3.5 0.00 0.00 0.00 48
20260507141803 45 344 0.9 5.2 0.00 0.00 0.00 49
20260507140903 42 306 1.7 5.2 0.00 0.00 0.00 55
20260507140003 41 297 1.7 3.5 0.00 0.00 0.00 61
20260507135403 40 297 1.7 3.5 0.00 0.00 0.00 63
20260507134503 38 300 0.9 2.6 0.00 0.00 0.00 66
20260507133603 37 303 0.0 1.7 0.00 0.00 0.00 63
20260507132913 37 297 0.0 1.7 0.00 0.00 0.00 63
20260507131803 36 0 0.0 0.0 0.00 0.00 0.00 60
20260507130903 36 0 0.0 0.0 0.00 0.00 0.00 58
20260507130003 36 0 0.0 0.0 0.00 0.00 0.00 60
20260507125403 35 0 0.0 0.0 0.00 0.00 0.00 59
20260507124503 35 297 0.0 0.9 0.00 0.00 0.00 58
20260507123603 35 297 0.0 1.7 0.00 0.00 0.00 57
20260507122705 35 297 0.0 0.9 0.00 0.00 0.00 57
20260507121803 35 0 0.0 0.0 0.00 0.00 0.00 56
20260507120903 35 297 0.0 0.9 0.00 0.00 0.00 56
20260507120004 35 297 0.0 1.7 0.00 0.00 0.00 57
20260507115403 35 297 0.0 1.7 0.00 0.00 0.00 57
20260507114503 35 0 0.0 0.0 0.00 0.00 0.00 57
20260507113603 35 297 0.0 0.9 0.00 0.00 0.00 56
20260507112703 36 297 0.9 2.6 0.00 0.00 0.00 55
20260507111803 36 297 0.0 1.7 0.00 0.00 0.00 55
20260507110903 36 0 0.0 0.0 0.00 0.00 0.00 53